Location: Newark
(49.9422°N, 2.8192°E)
Time: 19:25:01
(UTC+00:00)

Envisat - Visible Passes

Search period start: 26 January 2020 00:00
Search period end: 05 February 2020 00:00
Orbit: 764 x 766 km, 98.1° (Epoch: 26 January)

Date Brightness Start Highest point End Pass type
(mag) Time Alt. Az. Time Alt. Az. Time Alt. Az.
26 Jan 5.5 05:35:53 10° NE 05:40:00 24° E 05:44:06 10° SE visible
26 Jan 5.2 18:34:28 10° SSW 18:38:43 26° W 18:43:00 10° NW visible
27 Jan 6.3 05:00:50 10° ENE 05:02:44 12° E 05:04:38 10° ESE visible
27 Jan 3.2 06:37:30 10° NNE 06:42:38 78° ESE 06:47:42 10° S visible
27 Jan 3.9 17:56:44 10° S 18:01:41 53° W 18:06:41 10° NNW visible
28 Jan 4.6 06:00:56 10° NNE 06:05:42 39° E 06:10:27 10° SSE visible
28 Jan 3.0 17:19:47 10° SSE 17:24:51 79° ENE 17:29:58 10° NNW visible
28 Jan 6.0 19:01:20 10° SW 19:04:30 16° W 19:07:41 10° NW visible
29 Jan 5.8 05:24:53 10° NE 05:28:35 20° E 05:32:16 10° SE visible
29 Jan 4.9 18:22:47 10° SSW 18:27:20 32° W 18:31:54 10° NNW visible
30 Jan 3.6 06:26:14 10° NNE 06:31:19 64° ESE 06:36:21 10° S visible
30 Jan 3.5 17:45:19 10° S 17:50:22 65° WSW 17:55:26 10° NNW visible
31 Jan 5.0 05:49:47 10° NNE 05:54:20 32° E 05:58:51 10° SSE visible
31 Jan 3.0 17:08:34 10° SSE 17:13:35 65° ENE 17:18:38 10° N visible
31 Jan 5.7 18:49:22 10° SW 18:53:04 20° W 18:56:48 10° NW visible
01 Feb 6.1 05:14:01 10° NE 05:17:09 16° E 05:20:16 10° SE visible
01 Feb 4.5 18:11:13 10° SSW 18:15:57 39° W 18:20:45 10° NNW visible
02 Feb 4.0 06:15:00 10° NNE 06:19:59 52° E 06:24:55 10° S visible
02 Feb 3.2 17:33:58 10° S 17:39:02 80° WSW 17:44:10 10° NNW visible
02 Feb 6.3 19:16:56 10° WSW 19:18:55 12° W 19:20:55 10° WNW visible
03 Feb 5.4 05:38:41 10° NE 05:42:57 26° E 05:47:10 10° SSE visible
03 Feb 5.4 18:37:33 10° SSW 18:41:39 25° W 18:45:48 10° NW visible
04 Feb 6.3 05:03:22 10° ENE 05:05:42 13° E 05:08:02 10° ESE visible
04 Feb 3.1 06:40:24 10° NNE 06:45:31 84° ESE 06:50:37 10° SSW visible
04 Feb 4.1 17:59:42 10° S 18:04:36 49° W 18:09:33 10° NNW visible
